Starlink 33564

operational
NORAD ID: 62286 Int'l Des: 2024-237 Owner: SPXS Country: US Constellation: starlink
LEOCIRCULAR

About Starlink 33564

Description loading...

Live Position

Loading 3D Globe...

Upcoming Passes

Altitude History

Altitude vs Time

uPlot chart will show altitude changes over time

Two-Line Element Set

1 62286U 24237V 25304.50729403 .00035457 00000-0 12906-2 0 9990
2 62286 43.0033 226.0549 0002689 294.9698 65.0874 15.27610083 51435
Epoch: Oct 31, 2025 • Age: 9 hours

Current Status

Altitude 483.7 km
Velocity 7.63 km/s
Sub-Earth Point 19.24°N, 31.6°E
Launch Date Dec 8, 2024
Age 0.8 years
Type internet

Technical Details

Classification Payload
Mass 530.00 kg
Dry Mass 500.00 kg
Total Mass 530.00 kg
Length 0.30 m
Diameter 4.10 m
Span 29.00 m
Shape Box + pan
Manufacturer SPXS
Bus Type Starlink V2MO
Phase Status In Orbit
Owner/State SPXS/US

Large Constellations

Loading constellations...